Weather History for Douglas, WY

Change the Weather History Date:

Monday, January 6, 2014

  Actual Average Record
Temperature  
Mean Temperature 12 °F 25 °F  
Max Temperature 31 °F 39 °F 60 °F (2006)
Min Temperature -7 °F 11 °F -16 °F (2004)
Degree Days  
Heating Degree Days 53 40  
Month to date heating degree days 295 242  
Since 1 July heating degree days 3374 3331  
Cooling Degree Days 0 0  
Month to date cooling degree days 0 0  
Year to date cooling degree days 0 0  
Moisture  
Dew Point 4 °F    
Average Humidity 58    
Maximum Humidity 68    
Minimum Humidity 48    
Precipitation  
Precipitation 0.00 in 0.01 in 0.03 in (2010)
Month to date precipitation 0.19 0.07  
Year to date precipitation 0.19 0.07  
Sea Level Pressure  
Sea Level Pressure 30.35 in    
Wind  
Wind Speed 12 mph (NW)    
Max Wind Speed 24 mph    
Max Gust Speed 30 mph    
Visibility 10 miles    
Events      
T = Trace of Precipitation, MM = Missing Value Source: NWS Daily Summary

Daily Weather History Graph

Daily Weather History Graph

Search for Another Location

Airport:

Trip Planner

Search our weather history database for the weather conditions in past years. The results will help you decide how hot, cold, wet, or windy it might be!

Date:

Astronomy

Jan. 06, 2014 Rise Set
Actual Time 7:32 AM MST 4:43 PM MST
Civil Twilight 7:00 AM MST 5:14 PM MST
Nautical Twilight 6:24 AM MST 5:50 PM MST
Astronomical Twilight 5:50 AM MST 6:24 PM MST
Moon 10:39 AM MST (1/6) 11:29 PM MST (1/6)
Length of Visible Light 10h 14m
Length of Day
9h 11m
Waxing Crescent, 35% of the Moon is Illuminated
Jan 6
Waxing Crescent
Jan 7
First Quarter
Jan 15
Full
Jan 23
Last Quarter
Jan 30
New

Hourly Weather History & Observations

Time (MST) Temp. Windchill Dew Point Humidity Pressure Visibility Wind Dir Wind Speed Gust Speed Precip Events Conditions
12:53 AM -2.0 °F -15.4 °F -14.1 °F 57% 30.56 in 10.0 mi NW 6.9 mph - N/A   Clear
1:53 AM -0.9 °F -19.1 °F -11.9 °F 60% 30.56 in 10.0 mi NNW 12.7 mph - N/A   Clear
2:53 AM 1.9 °F -16.9 °F -11.9 °F 52% 30.55 in 10.0 mi NW 15.0 mph 21.9 mph N/A   Clear
3:53 AM -0.9 °F -11.0 °F -11.9 °F 60% 30.56 in 10.0 mi NW 4.6 mph - N/A   Clear
4:53 AM -0.9 °F -15.3 °F -11.9 °F 60% 30.56 in 10.0 mi West 8.1 mph - N/A   Clear
5:53 AM -2.9 °F -17.7 °F -13.0 °F 62% 30.57 in 10.0 mi West 8.1 mph - N/A   Clear
6:53 AM -0.0 °F -11.6 °F -11.0 °F 60% 30.55 in 10.0 mi NW 5.8 mph - N/A   Clear
7:53 AM 7.0 °F -9.1 °F -7.1 °F 53% 30.53 in 10.0 mi NW 12.7 mph - N/A   Clear
8:53 AM 12.0 °F -5.1 °F -4.0 °F 49% 30.51 in 10.0 mi NW 17.3 mph 26.5 mph N/A   Clear
9:53 AM 16.0 °F 0.6 °F -0.0 °F 49% 30.48 in 10.0 mi NW 16.1 mph - N/A   Clear
10:53 AM 19.9 °F 7.9 °F 3.0 °F 48% 30.42 in 10.0 mi NW 11.5 mph - N/A   Clear
11:53 AM 25.0 °F 11.3 °F 8.1 °F 49% 30.36 in 10.0 mi NW 18.4 mph - N/A   Mostly Cloudy
12:53 PM 27.0 °F 15.2 °F 10.9 °F 51% 30.30 in 10.0 mi NW 15.0 mph - N/A   Overcast
1:53 PM 27.0 °F 16.7 °F 12.0 °F 53% 30.27 in 10.0 mi NW 11.5 mph - N/A   Overcast
2:53 PM 30.9 °F 20.7 °F 16.0 °F 54% 30.26 in 10.0 mi NW 13.8 mph 23.0 mph N/A   Overcast
3:53 PM 28.9 °F 19.8 °F 16.0 °F 58% 30.28 in 10.0 mi NW 10.4 mph - N/A   Overcast
4:53 PM 27.0 °F 14.3 °F 15.1 °F 61% 30.27 in 10.0 mi WNW 17.3 mph - N/A   Mostly Cloudy
5:53 PM 23.0 °F 15.8 °F 12.9 °F 65% 30.27 in 10.0 mi North 5.8 mph - N/A   Clear
6:53 PM 21.9 °F 13.4 °F 12.9 °F 68% 30.26 in 10.0 mi NW 6.9 mph - N/A   Clear
7:53 PM 21.0 °F 10.6 °F 12.0 °F 68% 30.22 in 10.0 mi NNW 9.2 mph - N/A   Clear
8:53 PM 23.0 °F 10.6 °F 12.9 °F 65% 30.17 in 10.0 mi North 13.8 mph - N/A   Clear
9:34 PM 24.8 °F - 14.0 °F 64% 29.99 in 10.0 mi North - - N/A   Clear
9:53 PM 28.0 °F - 14.0 °F 56% 30.12 in 10.0 mi North - - N/A   Clear
10:53 PM 28.9 °F 18.2 °F 15.1 °F 56% 30.09 in 10.0 mi NNW 13.8 mph - N/A   Clear
11:53 PM 28.9 °F 16.9 °F 15.1 °F 56% 30.06 in 10.0 mi NNW 17.3 mph - N/A   Clear